EW9578 Weather Reports


time (UTC)temp
C
wind
direction
speed
KPH
gust
KPH
rain 1hr
cm
rain 24hr
cm
rain mn
cm
humidity
%
barometer
mb
20200531080144 16 0.0 0.0 0.00 0.33 0.00 66 1008.4
20200531074548 16 0.0 0.0 0.00 0.33 0.00 65 1008.3
20200531073043 17 0.0 0.0 0.00 0.33 0.00 64 1008.2
20200531071540 17 0.0 0.0 0.00 0.33 0.00 64 1008.1
20200531070030 17 0.0 0.0 0.00 0.33 0.00 63 1008.0
20200531064607 -17 261 0.0 12.9 0.00 0.33 0.00 1007.9
20200531063050 -17 252 1.6 12.9 0.00 0.33 0.00 1007.9
20200531061600 -17 260 1.6 19.3 0.00 0.33 0.00 1007.8
20200531060027 -17 286 3.2 17.7 0.00 0.33 0.00 1007.7
20200531054515 18 0.0 0.0 0.00 0.33 0.00 58 1007.8
20200531053034 18 0.0 0.0 0.00 0.33 0.00 56 1007.7
20200531051510 19 0.0 0.0 0.00 0.33 0.00 55 1007.7
20200531050021 19 0.0 0.0 0.00 0.33 0.00 56 1007.7
20200531044502 19 0.0 0.0 0.00 0.33 0.00 56 1007.8
20200531043248 19 0.0 0.0 0.00 0.33 0.00 56 1007.7
20200531041748 19 0.0 0.0 0.00 0.33 0.00 56 1007.8
20200531040146 19 0.0 0.0 0.00 0.33 0.33 56 1007.6
20200531034734 20 0.0 0.0 0.00 0.33 0.33 55 1007.6
20200531033318 20 0.0 0.0 0.00 0.33 0.33 53 1007.6
20200531031639 20 0.0 0.0 0.00 0.33 0.33 53 1007.3
20200531030304 20 0.0 0.0 0.00 0.33 0.33 51 1006.9
20200531024626 21 0.0 0.0 0.00 0.33 0.33 51 1007.1
20200531023156 21 0.0 0.0 0.00 0.33 0.33 51 1007.1
20200531021623 21 0.0 0.0 0.00 0.33 0.33 50 1007.3
20200531020149 22 0.0 0.0 0.00 0.33 0.33 49 1007.3
20200531014644 22 0.0 0.0 0.00 0.33 0.33 49 1007.3
20200531013241 22 0.0 0.0 0.00 0.33 0.33 49 1007.2
20200531011837 22 0.0 0.0 0.00 0.33 0.33 48 1007.0
20200531010133 23 0.0 0.0 0.00 0.33 0.33 47 1006.9
20200531004628 23 0.0 0.0 0.00 0.33 0.33 45 1006.8
20200531003100 23 0.0 0.0 0.00 0.33 0.33 45 1006.8
20200531001757 24 0.0 0.0 0.00 0.33 0.33 44 1006.7
20200531000246 24 0.0 0.0 0.00 0.33 0.33 43 1006.7
20200530234643 25 0.0 0.0 0.00 0.33 0.33 43 1006.7
20200530233115 25 0.0 0.0 0.00 0.33 0.33 42 1006.5
20200530231615 25 0.0 0.0 0.00 0.33 0.33 41 1006.4
20200530230116 25 0.0 0.0 0.00 0.33 0.33 41 1006.3
20200530224703 -17 245 6.4 22.5 0.00 0.33 0.33 1006.3
20200530223110 -17 319 1.6 14.5 0.00 0.33 0.33 1006.2
20200530221647 -17 259 3.2 19.3 0.00 0.33 0.33 1006.1
20200530220235 -17 255 9.7 25.7 0.00 0.33 0.33 1006.0
20200530214603 -17 261 3.2 19.3 0.00 0.33 0.33 1005.9
20200530213110 -17 207 3.2 22.5 0.00 0.33 0.33 1005.9
20200530211539 -17 207 16.1 25.7 0.00 0.33 0.33 1006.0
20200530210034 -17 255 6.4 16.1 0.00 0.33 0.33 1006.1
20200530204547 -17 237 9.7 27.4 0.00 0.33 0.33 1006.1
20200530203052 -17 255 8.0 24.1 0.00 0.33 0.33 1006.0
20200530201516 -17 190 12.9 24.1 0.00 0.33 0.33 1006.1
20200530200005 -17 5 3.2 19.3 0.00 0.33 0.33 1006.0
20200530194509 28 0.0 0.0 0.00 0.33 0.33 37 1006.0
20200530193006 28 0.0 0.0 0.00 0.33 0.33 37 1006.0
20200530191807 28 0.0 0.0 0.00 0.33 0.33 37 1006.1
20200530190133 27 0.0 0.0 0.00 0.33 0.33 38 1006.1
20200530184725 27 0.0 0.0 0.00 0.33 0.33 39 1006.1
20200530183106 27 0.0 0.0 0.00 0.33 0.33 39 1006.3
20200530181611 27 0.0 0.0 0.00 0.33 0.33 40 1006.2
20200530180126 27 0.0 0.0 0.00 0.33 0.33 40 1006.2
20200530174612 27 0.0 0.0 0.00 0.33 0.33 43 1006.5
20200530173205 26 0.0 0.0 0.00 0.33 0.33 44 1006.5
20200530171734 27 0.0 0.0 0.00 0.33 0.33 44 1006.6
20200530170146 27 0.0 0.0 0.00 0.33 0.33 45 1006.5
20200530164628 27 0.0 0.0 0.00 0.33 0.33 48 1006.6
20200530163119 26 0.0 0.0 0.00 0.33 0.33 50 1006.7
20200530161617 26 0.0 0.0 0.00 0.33 0.33 50 1006.7
20200530160106 26 0.0 0.0 0.00 0.33 0.33 49 1006.9
20200530154610 27 0.0 0.0 0.00 0.33 0.33 51 1007.0
20200530153121 26 0.0 0.0 0.00 0.33 0.33 52 1007.0
20200530151554 26 0.0 0.0 0.00 0.33 0.33 53 1007.1
20200530150051 25 0.0 0.0 0.00 0.33 0.33 53 1007.0
20200530144635 25 0.0 0.0 0.00 0.33 0.33 55 1007.1
20200530143051 24 0.0 0.0 0.00 0.33 0.33 58 1007.1
20200530141606 23 0.0 0.0 0.00 0.33 0.33 66 1007.1
20200530140056 23 0.0 0.0 0.00 0.33 0.33 73 1007.0
20200530134559 23 0.0 0.0 0.00 0.33 0.33 75 1007.0
20200530133058 23 0.0 0.0 0.00 0.33 0.33 79 1007.0
20200530131556 22 0.0 0.0 0.00 0.33 0.33 82 1007.2
20200530130021 21 0.0 0.0 0.00 0.33 0.33 87 1007.1
20200530124521 21 0.0 0.0 0.00 0.33 0.33 92 1007.1
20200530123035 20 0.0 0.0 0.00 0.33 0.33 95 1007.1
20200530121605 20 0.0 0.0 0.00 0.33 0.33 96 1007.2
20200530120021 18 0.0 0.0 0.00 0.33 0.33 96 1007.1
20200530114519 -17 199 8.0 16.1 0.03 0.33 0.33 1007.1
20200530113008 -17 202 12.9 16.1 0.03 0.33 0.33 1007.1
20200530111704 -17 202 14.5 24.1 0.03 0.33 0.33 1007.0
20200530110157 -17 221 0.0 8.0 0.03 0.33 0.33 1006.9
20200530104637 17 0.0 0.0 0.03 0.33 0.33 96 1007.1
20200530103124 17 0.0 0.0 0.00 0.30 0.30 96 1006.9
20200530101644 17 0.0 0.0 0.00 0.30 0.30 96 1007.1
20200530100119 16 0.0 0.0 0.00 0.30 0.30 96 1006.8
20200530094703 16 0.0 0.0 0.00 0.30 0.30 95 1006.5
20200530093105 16 0.0 0.0 0.05 0.30 0.30 94 1006.5
20200530091718 16 0.0 0.0 0.25 0.30 0.30 95 1006.6
20200530090215 16 0.0 0.0 0.30 0.30 0.30 94 1006.7
20200530084624 16 0.0 0.0 0.30 0.30 0.30 94 1006.9
20200530083215 17 0.0 0.0 0.28 0.28 0.28 93 1006.9